Tracking 29528 objects as of 13-Sep-2024
HD Live streaming from Space Station
objects crossing your sky now

FENGYUN 1C DEB

Track FENGYUN 1C DEB now!
10-day predictions


NORAD ID: 30420
Int'l Code: 1999-025AEK
Perigee: 483.0 km
Apogee: 623.8 km
Inclination: 99.0 °
Period: 95.6 minutes
Semi major axis: 6924 km
RCS: 0.046 m2 (small)
Launch date: May 10, 1999
Source: People's Republic of China (PRC)
Launch site: Taiyaun Space Center, China (TSC)

Note: This is SATELLITE DEBRIS
Your satellite tracking list
Your tracking list is empty




NASA's NSSDC Master Catalog

Two Line Element Set (TLE):
1 30420U 99025AEK 24256.94871435  .00083881  00000-0  49724-2 0  9990
2 30420  98.9511 243.2862 0101622 102.7580 258.5024 15.06713401946290
Source of the keplerian elements: AFSPC